Weather in Uray

Russia / Khanty-Mansi Autonomous Okrug — Yugra     60°07′46″N   64°48′14″E
temp.,
°C
wind,
m/s
gust,
m/s
humid.,
%
clouds,
%
prec.,
mm/h
press.,
hPa
HPBL,
m
22 april, thu
thu2223:00+5sse410733 0.0 1034330
02:00+3sse410775 0.0 1034264
05:00+2sse4108241 0.0 1035218
08:00+6sse5106697 0.0 1035356
11:00+11sse794970 0.0 1034856
14:00+14sse7940100 0.0 10321501
17:00+15s7103955 0.0 10311919
20:00+12sse61349100 0.0 1030540
23 april, fri
fri2323:00+10s61259100 0.0 1030490
02:00+8s51069100 0.0 1030300
05:00+6s5107499 0.0 1030331
08:00+7s3675100 0.1 1030307
11:00+9ssw6964100 0.3 1030984
14:00+9sw5871100 0.1 10301191
17:00+6sw4787100 0.4 1030635
20:00+6ssw3781100 0.0 1030426
24 april, sat
sat2423:00+6sw258488 0.0 1030199
02:00+5sw2388100 0.0 102994
05:00+4wsw2292100 0.0 102937
08:00+5sw1189100 0.0 102974
11:00+7ssw1277100 0.0 1028264
14:00+9se2258100 0.0 1027966
17:00+10ese3355100 0.0 1026850
20:00+8ese3665100 0.0 1025249
25 april, sun
sun2523:00+7e3783100 0.1 1024225
02:00+6ese4987100 0.1 1023285
05:00+4ese3592100 0.1 1023134
08:00+6se3676100 0.0 1022323
11:00+10se5746100 0.0 10211791
14:00+11se6842100 0.0 10201895
17:00+11se6840100 0.0 10181974
20:00+9se61053100 0.0 10171186
26 april, mon
mon2623:00+8ese51161100 0.0 1015557
02:00+7ese6106491 0.0 1013528
05:00+6se51071100 0.3 1011775
08:00+4se2694100 2.2 1010767
11:00+6wsw6981100 2.6 10101032
14:00+11w8124282 0.0 10112068
17:00+12w7103652 0.0 10112409
20:00+8sw5105939 0.1 1012591